When you browse on this site, cookies collect data to enhance your experience and personalize the content and advertising you see.
Visit our Privacy Policy to learn more. By continuing to use the site, you agree to this use of cookies and data.
  • In Austria
  • List of Countries
  • For 7 days
  • Water Temperature
  • Weather Map
  • News
  • Weather Widgets
  • user-avatar
    Login

    Hourly Weather San Agustin Tlaxiaca

    Today, 25 August, Sunday

    Time Temperature Precipitation Wind Pressure Humidity
    00:00 +15°C° 0 mm 1 mps 575 mmHg 85%
    01:00 +15°C° 0 mm 1 mps 574 mmHg 85%
    02:00 +14°C° 0 mm 0 mps 574 mmHg 85%
    03:00 +14°C° 0 mm 1 mps 574 mmHg 85%
    04:00 +14°C° 0 mm 1 mps 574 mmHg 85%
    05:00 +13°C° 0 mm 1 mps 574 mmHg 85%
    06:00 +15°C° 0 mm 1 mps 575 mmHg 79%
    07:00 +18°C° 0 mm 1 mps 576 mmHg 73%
    08:00 +20°C° 0 mm 1 mps 577 mmHg 66%
    09:00 +21°C° 0 mm 1 mps 577 mmHg 60%
    10:00 +23°C° 0 mm 1 mps 577 mmHg 54%
    11:00 +24°C° 0 mm 2 mps 578 mmHg 48%
    12:00 +25°C° 0.2 mm 2 mps 577 mmHg 48%
    13:00 +25°C° 0.2 mm 2 mps 577 mmHg 47%
    14:00 +25°C° 0.2 mm 3 mps 576 mmHg 47%
    15:00 +24°C° 0.7 mm 3 mps 576 mmHg 53%
    16:00 +22°C° 0.7 mm 3 mps 576 mmHg 60%
    17:00 +21°C° 0.7 mm 3 mps 575 mmHg 66%
    18:00 +20°C° 0.3 mm 2 mps 575 mmHg 70%
    19:00 +18°C° 0.3 mm 2 mps 575 mmHg 73%
    20:00 +18°C° 0.3 mm 1 mps 574 mmHg 77%
    21:00 +16°C° 0.1 mm 1 mps 574 mmHg 78%
    22:00 +16°C° 0.1 mm 1 mps 574 mmHg 80%
    23:00 +14°C° 0.1 mm 0 mps 574 mmHg 81%

    Tomorrow, 26 August, Monday

    Time Temperature Precipitation Wind Pressure Humidity
    00:00 +14°C° 0.2 mm 0 mps 573 mmHg 82%
    01:00 +14°C° 0.2 mm 0 mps 573 mmHg 83%
    02:00 +13°C° 0.2 mm 0 mps 572 mmHg 84%
    03:00 +13°C° 0.1 mm 0 mps 572 mmHg 85%
    04:00 +13°C° 0.1 mm 0 mps 572 mmHg 85%
    05:00 +13°C° 0.1 mm 0 mps 572 mmHg 85%
    06:00 +14°C° 0 mm 0 mps 573 mmHg 81%
    07:00 +16°C° 0 mm 0 mps 574 mmHg 76%
    08:00 +17°C° 0 mm 0 mps 575 mmHg 71%
    09:00 +20°C° 0.5 mm 1 mps 575 mmHg 66%
    10:00 +22°C° 0.5 mm 1 mps 576 mmHg 62%
    11:00 +23°C° 0.5 mm 1 mps 576 mmHg 57%
    12:00 +23°C° 0.8 mm 2 mps 576 mmHg 56%
    13:00 +23°C° 0.8 mm 2 mps 575 mmHg 55%
    14:00 +24°C° 0.8 mm 3 mps 575 mmHg 55%
    15:00 +22°C° 1.3 mm 3 mps 574 mmHg 60%
    16:00 +21°C° 1.3 mm 3 mps 574 mmHg 66%
    17:00 +19°C° 1.3 mm 2 mps 573 mmHg 72%
    18:00 +18°C° 1.2 mm 2 mps 573 mmHg 76%
    19:00 +18°C° 1.2 mm 1 mps 574 mmHg 79%
    20:00 +16°C° 1.2 mm 1 mps 574 mmHg 83%
    21:00 +16°C° 0.2 mm 1 mps 574 mmHg 83%
    22:00 +15°C° 0.2 mm 1 mps 573 mmHg 83%
    23:00 +14°C° 0.2 mm 0 mps 573 mmHg 84%

    Day after tomorrow, 27 August, Tuesday

    Time Temperature Precipitation Wind Pressure Humidity
    00:00 +13°C° 0.1 mm 0 mps 573 mmHg 85%
    01:00 +13°C° 0.1 mm 0 mps 572 mmHg 86%
    02:00 +12°C° 0.1 mm 0 mps 572 mmHg 87%
    03:00 +12°C° 0 mm 0 mps 572 mmHg 87%
    04:00 +12°C° 0 mm 0 mps 572 mmHg 88%
    05:00 +12°C° 0 mm 0 mps 572 mmHg 89%
    06:00 +13°C° 0 mm 0 mps 573 mmHg 84%
    07:00 +15°C° 0 mm 0 mps 574 mmHg 79%
    08:00 +17°C° 0 mm 0 mps 575 mmHg 73%
    09:00 +20°C° 0 mm 1 mps 576 mmHg 67%
    10:00 +21°C° 0 mm 1 mps 576 mmHg 61%
    11:00 +23°C° 0 mm 2 mps 576 mmHg 54%
    12:00 +23°C° 0.9 mm 2 mps 576 mmHg 55%
    13:00 +22°C° 0.9 mm 3 mps 576 mmHg 56%
    14:00 +22°C° 0.9 mm 4 mps 575 mmHg 57%
    15:00 +21°C° 1.5 mm 4 mps 575 mmHg 64%
    16:00 +20°C° 1.5 mm 4 mps 574 mmHg 70%
    17:00 +18°C° 1.5 mm 4 mps 574 mmHg 77%
    18:00 +17°C° 0.8 mm 3 mps 574 mmHg 80%
    19:00 +17°C° 0.8 mm 3 mps 574 mmHg 83%
    20:00 +16°C° 0.8 mm 2 mps 575 mmHg 87%
    21:00 +15°C° 0.4 mm 2 mps 575 mmHg 86%
    22:00 +15°C° 0.4 mm 1 mps 575 mmHg 86%
    23:00 +15°C° 0.4 mm 1 mps 575 mmHg 85%

    28 August, Wednesday

    Time Temperature Precipitation Wind Pressure Humidity
    00:00 +15°C° 0.1 mm 1 mps 575 mmHg 84%
    01:00 +14°C° 0.1 mm 1 mps 574 mmHg 84%
    02:00 +13°C° 0.1 mm 0 mps 574 mmHg 83%
    03:00 +13°C° 0 mm 0 mps 574 mmHg 84%
    04:00 +12°C° 0 mm 0 mps 574 mmHg 86%
    05:00 +12°C° 0 mm 0 mps 574 mmHg 87%
    06:00 +13°C° 0 mm 0 mps 575 mmHg 80%
    07:00 +15°C° 0 mm 0 mps 576 mmHg 74%
    08:00 +17°C° 0 mm 0 mps 577 mmHg 67%
    09:00 +21°C° 0 mm 1 mps 578 mmHg 61%
    10:00 +21°C° 0 mm 2 mps 578 mmHg 55%
    11:00 +22°C° 0 mm 3 mps 578 mmHg 49%
    12:00 +22°C° 0 mm 4 mps 578 mmHg 50%
    13:00 +23°C° 0 mm 5 mps 578 mmHg 50%
    14:00 +23°C° 0 mm 6 mps 577 mmHg 51%
    15:00 +21°C° 0.1 mm 6 mps 576 mmHg 56%
    16:00 +20°C° 0.1 mm 6 mps 576 mmHg 61%
    17:00 +19°C° 0.1 mm 6 mps 575 mmHg 66%
    18:00 +16°C° 0 mm 5 mps 575 mmHg 73%
    19:00 +16°C° 0 mm 3 mps 575 mmHg 80%
    20:00 +14°C° 0 mm 2 mps 575 mmHg 88%
    21:00 +13°C° 0 mm 2 mps 575 mmHg 89%
    22:00 +13°C° 0 mm 2 mps 575 mmHg 91%
    23:00 +13°C° 0 mm 1 mps 575 mmHg 93%

    29 August, Thursday

    Time Temperature Precipitation Wind Pressure Humidity
    00:00 +12°C° 0 mm 1 mps 574 mmHg 92%
    01:00 +12°C° 0 mm 1 mps 574 mmHg 92%
    02:00 +12°C° 0 mm 1 mps 573 mmHg 92%
    03:00 +10°C° 0 mm 0 mps 573 mmHg 91%
    04:00 +10°C° 0 mm 0 mps 573 mmHg 90%
    05:00 +10°C° 0 mm 0 mps 573 mmHg 89%
    06:00 +11°C° 0 mm 0 mps 574 mmHg 80%
    07:00 +13°C° 0 mm 0 mps 576 mmHg 71%
    08:00 +15°C° 0 mm 0 mps 577 mmHg 63%
    09:00 +19°C° 0 mm 1 mps 577 mmHg 54%
    10:00 +21°C° 0 mm 1 mps 578 mmHg 45%
    11:00 +23°C° 0 mm 2 mps 578 mmHg 36%
    12:00 +22°C° 0 mm 3 mps 578 mmHg 37%
    13:00 +23°C° 0 mm 4 mps 578 mmHg 38%
    14:00 +23°C° 0 mm 5 mps 577 mmHg 39%
    15:00 +22°C° 0.1 mm 5 mps 577 mmHg 50%
    16:00 +20°C° 0.1 mm 5 mps 576 mmHg 61%
    17:00 +19°C° 0.1 mm 5 mps 575 mmHg 73%
    18:00 +17°C° 0.2 mm 4 mps 575 mmHg 79%
    19:00 +16°C° 0.2 mm 3 mps 575 mmHg 85%
    20:00 +14°C° 0.2 mm 2 mps 575 mmHg 91%
    21:00 +14°C° 0 mm 2 mps 575 mmHg 92%
    22:00 +13°C° 0 mm 2 mps 575 mmHg 92%
    23:00 +13°C° 0 mm 1 mps 575 mmHg 92%

    30 August, Friday

    Time Temperature Precipitation Wind Pressure Humidity
    00:00 +12°C° 0 mm 1 mps 574 mmHg 92%
    01:00 +12°C° 0 mm 1 mps 574 mmHg 92%
    02:00 +10°C° 0 mm 0 mps 573 mmHg 91%
    03:00 +10°C° 0 mm 0 mps 573 mmHg 91%
    04:00 +9°C° 0 mm 0 mps 573 mmHg 91%
    05:00 +9°C° 0 mm 0 mps 573 mmHg 90%
    06:00 +11°C° 0 mm 0 mps 574 mmHg 80%
    07:00 +13°C° 0 mm 0 mps 575 mmHg 71%
    08:00 +15°C° 0 mm 0 mps 576 mmHg 61%
    09:00 +19°C° 0 mm 1 mps 577 mmHg 53%
    10:00 +21°C° 0 mm 1 mps 577 mmHg 45%
    11:00 +21°C° 0 mm 2 mps 578 mmHg 38%
    12:00 +22°C° 0 mm 3 mps 577 mmHg 39%
    13:00 +22°C° 0 mm 4 mps 577 mmHg 40%
    14:00 +23°C° 0 mm 5 mps 576 mmHg 41%
    15:00 +21°C° 0.1 mm 5 mps 576 mmHg 50%
    16:00 +20°C° 0.1 mm 5 mps 575 mmHg 59%
    17:00 +19°C° 0.1 mm 4 mps 575 mmHg 68%
    18:00 +17°C° 0.2 mm 4 mps 575 mmHg 74%
    19:00 +14°C° 0.2 mm 3 mps 574 mmHg 81%
    20:00 +14°C° 0.2 mm 2 mps 574 mmHg 88%
    21:00 +13°C° 0 mm 2 mps 574 mmHg 88%
    22:00 +13°C° 0 mm 1 mps 574 mmHg 88%
    23:00 +12°C° 0 mm 1 mps 574 mmHg 88%
    Show more